Showing default

OPS 4988 (GREB 6), 1271

Orbit data source: Space-Track

OPS 4988 (GREB 6), 1271 is an American payload satellite in LEO that was launched on Tue, 09 Mar 1965 UTC via a THOR SLV-2 AGENA D launch vehicle from the Air Force Western Test Range (AFWTR). Payload-class satellites include a variety of spacecraft equipped with specific instruments for various scientific and technological missions. These include communications satellites like Starlink; space stations such as the ISS; scientific satellites like the Hubble; Earth observation satellites from companies like Planet Labs, Umbra, and HawkEye 360; GPS; miniature CubeSats for education and research; and military/defense satellites.

Loading next visibility...
Identifier
1271, 1965-016A
Orbit
LEO
Country
Flag of USUS
Related business
Manufacturer
NRL
Mission
Spacecraft
Bus & Motor
NRL 24", Unknown motor
Mass
48 kg wet, 48 kg dry
Launch date (UTC)
1965-03-09 (61 years ago)
Launch vehicle
THOR SLV-2 AGENA D
Launch site
Air Force Western Test Range (AFWTR)
Object type
Payload
Rocket body
Debris
Shape & HBR
Unknown
Radar Cross Section
Medium (>0.1 m² and <1 m²)

Expand to show TLE details & history
Last TLE update: 7 hours ago

TLE from 7 hours ago
0 OPS 4988 (GREB 6)
1 01271U 65016A   26035.27480807  .00000081  00000-0  96007-4 0  9996
2 01271  70.0787  81.4776 0023530 247.3374 182.7243 13.96634730100255
Epoch: 2026-02-04T06:35Z
TLE epoch observation values (Epoch: 2026-02-04T06:35:43.417Z)
Latitude
62.20381°
Longitude
-108.7477°
Altitude
932.653 km
Speed
7.383 km/s
True Right ascension
08h 18m 30s
True Declination
62° 03' 54"
Sunlit
Object was in full shadow at epoch
Visualization orbit readout
Latitude
Unknown
Longitude
Unknown
Altitude
Unknown
Speed
Unknown
Apparent Right ascension
Unknown
Apparent Declination
Unknown
Sunlit
N/A
Visualization observer readout
Local Sidereal Time
16:01:38
Azimuth
Unknown
Elevation
Unknown
Doppler factor
Unknown
Orbital elements
Apogee altitude
920.64 km
Perigee altitude
886.373 km
Semi-major axis
7,281.643 km
Eccentricity
0.00235
Inclination
70.0787°
RAAN
81.4776°
Arg. of periapsis
247.3374°
True anomaly
182.71152°
Mean anomaly
182.7243°
Eccentric anomaly
182.71791°
Mean motion
3.493 °/min
Orbital period
103.06 mins
BSTAR
0.000096007
Loading maneuver chart data...
Computing Atmospheric mass density...
Loading historical data...
Loading historical data...
Loading historical data...
Loading historical data...
Loading historical data...
Loading historical data...
Loading historical data...

Documentation

Showing up to 5 results
|